Tracking 19846 objects as of 18-Sep-2019
HD Live streaming from Space Station
objects crossing your sky now

COSMOS 1437

Track COSMOS 1437 now!
10-day predictions
COSMOS 1437 is classified as:


NORAD ID: 13770
Int'l Code: 1983-003A
Perigee: 390.5 km
Apogee: 394.8 km
Inclination: 81.2 °
Period: 92.3 minutes
Semi major axis: 6763 km
RCS: 7.8902 m2 (large)
Launch date: January 20, 1983
Source: Commonwealth of Independent States (former USSR) (CIS)
Launch site: PLESETSK MISSILE AND SPACE COMPLEX (PKMTR)
aabbcc
Your satellite tracking list
Your tracking list is empty




NASA's NSSDC Master Catalog

Two Line Element Set (TLE):
1 13770U 83003A   19260.86551285  .00006426  00000-0  76915-4 0  9990
2 13770  81.1596 210.7037 0003227 169.6900 190.4419 15.60745780 14472
Source of the keplerian elements: AFSPC